SCP
0 0 0 0 0 0 0 0 0 0 0 0 0 0 0 0 0 0 0 0 0 0 0 0 0 0 0 0 0 0 0 0 0 0 0 0 0 0 0 0 0 0 -0 0
0 0 0 0 0 0 0 0 0 0 0 0 0 0 0 0 0 0 0 0 0 0 0 0 0 0 0 0 0 0 0 0 0 0 0 0 0 0 0 0 0 0 0 0
0 0 0 0 0 0 0 0 0 0 0 0 0 0 0 0 0 0 -0 0 0 0 0 0 0 0 0 0 0 0 0 0 0 0 0 0 0 0 0 0 0 0 0 0
0 0 0 0 0 0 0 0 0 0 0 0 0 0 0 0 0 0 0 0 0 0 0 0 0 0 0 0 0 0 0 0 0 0 0 0 0 0 0 0 0 0 0 0
0 0 0 0 0 0 0 0 0 0 0 0 0 0 0 0 0 0 0 0 0 0 0 0 0 0 0 0 0 0 0 0 0 0 0 0 0 0 0 0 0 0 0 0
0 0 0 0 0 0 0 0 0 0 0 0 0 0 0 0 0 0 0 0 0 0 0 0 0 0 0 0 0 0 0 0 0 0 0 0 0 0 -0 0 0 0 0 0
0 0 0 0 0 0 0 0 0 0 0 0 0 0 0 0 0 0 0 0 0 0 0 0 0 0 0 0 0 0 0 0 0 0 0 0 0 0 0 -0 0 0 0 0
0 0 0 0 0 0 0 0 0 0 0 0 0 0 0 0 0 0 0 0 0 0 0 0 0 0 0 0 0 0 0 0 0 0 0 0 0 0 0 -0 0 0 0 0
0 0 0 0 0 0 0 0 0 0 0 0 0 0 0 0 0 0 0 0 0 0 0 0 0 0 0 0 0 0 0 0 0 0 0 0 0 0 0 0 0 0 0 0
0 0 0 0 0 0 0 0 0 0 0 0 0 0 0 0 0 0 0 0 0 0 0 0 0 0 -0 0 0 0 0 0 0 0 0 0 0 0 0 0 0 0 0 0
0 0 0 0 0 0 0 0 0 0 0 0 0 0 0 0 0 0 0 0 0 0 0 0 0 0 0 -0 0 0 0 0 0 0 0 0 0 0 0 0 0 0 0 0
0 0 0 0 0 0 0 0 0 0 0 0 0 0 0 0 0 0 0 0 0 0 0 0 0 0 0 0 0 0 0 0 0 0 0 0 0 0 0 0 0 0 0 0
0 0 0 0 0 0 0 0 0 0 0 0 0 0 0 0 0 0 0 0 0 0 0 0 0 0 0 0 0 0 0 0 0 0 0 0 0 0 0 0 0 0 0 0
0 0 0 0 0 0 0 0 0 0 0 0 0 0 0 0 0 0 0 0 0 0 0 0 0 0 0 0 0 0 0 0 0 0 0 0 0 0 0 0 0 0 0 0
0 0 0 0 0 0 0 0 0 0 0 0 0 0 0 0 0 0 0 0 0 0 -0 0 0 0 0 0 0 0 0 0 0 0 0 0 0 0 0 0 0 0 0 0
0 0 0 0 0 0 0 0 0 0 0 0 0 0 0 0 0 0 0 0 0 -0 -0 0 0 0 0 0 0 0 0 0 0 0 0 0 0 0 0 0 0 0 0 0
0 0 0 0 0 0 0 0 0 0 0 0 0 0 0 0 0 0 0 0 0 0 0 0 0 0 0 0 0 0 0 0 0 0 0 0 0 0 0 0 0 0 0 0
0 0 0 0 0 0 0 0 0 0 0 0 0 0 0 0 0 0 0 0 0 0 0 0 0 0 0 0 0 0 0 0 0 0 0 0 0 0 0 0 0 0 0 0
0 0 0 0 0 0 0 0 0 0 0 0 0 0 0 0 0 0 0 0 0 0 0 0 0 0 0 0 0 0 0 0 0 0 0 0 0 0 0 0 0 0 0 0
0 0 0 0 0 0 0 0 0 0 0 0 0 0 0 0 0 0 0 0 0 0 0 0 0 0 0 0 0 0 0 0 0 0 0 0 0 0 0 0 0 0 0 0
0 0 0 0 0 0 0 0 0 0 0 0 0 0 0 0 0 0 0 0 0 0 0 0 0 0 0 0 0 0 0 0 0 0 0 0 0 0 0 0 0 0 0 0
0 0 0 0 0 0 0 0 0 0 0 0 0 0 0 0 0 0 0 0 0 0 0 0 0 0 0 0 0 0 0 0 0 0 0 0 0 0 0 0 0 0 0 0
0 0 0 0 0 0 0 0 0 0 0 0 0 0 0 0 0 0 0 0 0 0 0 0 0 0 0 0 0 0 0 0 0 0 0 0 0 0 0 0 0 0 0 0
0 0 0 0 0 0 0 0 0 0 0 0 0 0 0 0 0 0 0 0 0 0 0 0 0 0 0 0 0 0 0 0 0 0 0 0 0 0 0 0 0 0 0 0
0 0 0 0 0 0 0 0 0 0 0 0 0 0 0 0 0 0 0 0 0 0 0 0 0 0 0 0 0 0 0 0 0 0 0 0 0 0 0 0 0 0 0 0
0 0 0 0 0 0 0 0 0 0 0 0 0 0 0 0 0 0 0 0 0 0 0 0 0 0 0 0 0 0 0 0 0 0 0 0 0 0 0 0 0 0 0 0
0 0 0 0 0 0 0 0 0 0 0 0 0 0 0 0 0 0 0 0 0 0 0 0 0 0 0 0 0 0 0 0 0 0 0 0 0 0 0 0 0 0 0 0
Wind_Speed_500mb
5 6 9 10 17 33 21 22 13 11 14 20 18 15 17 10 3 3 9 11 11 10 8 13 21 26 27 29 33 34 33 25 18 17 17 22 21 17 14 15 16 16 18 17
6 8 7 5 9 20 12 6 4 6 7 9 21 33 25 15 11 8 9 11 12 12 13 14 15 18 26 30 31 33 33 26 23 20 18 22 22 19 17 16 19 21 22 22
5 4 4 9 18 17 11 9 23 14 17 13 13 20 32 26 21 15 12 15 18 17 13 12 14 17 20 26 30 33 31 26 25 22 19 22 24 21 19 17 21 22 27 25
6 3 3 11 4 17 13 15 15 8 14 14 24 31 28 27 26 21 18 20 23 27 26 19 15 15 14 20 25 30 31 27 24 25 21 21 25 22 21 20 21 24 32 30
10 7 7 1 9 15 16 17 25 23 14 31 52 44 22 23 27 27 24 26 30 33 34 36 30 25 17 4 17 24 27 26 25 24 22 21 24 18 20 21 23 29 36 32
7 11 17 10 10 23 9 9 15 41 26 34 35 8 8 27 29 29 30 30 33 37 40 41 45 44 30 18 3 13 23 24 24 25 23 23 22 18 19 23 26 34 29 29
8 5 13 10 15 27 13 11 8 42 47 52 14 12 50 40 39 36 36 36 36 38 43 47 46 44 43 37 18 5 13 23 26 25 23 25 24 22 24 27 31 33 29 27
6 7 13 23 10 21 11 14 28 41 48 49 42 68 58 47 40 35 36 36 37 38 43 44 44 44 44 41 39 24 6 14 24 28 24 24 26 27 27 33 34 36 33 30
16 12 4 51 13 24 32 45 40 51 59 64 76 67 57 48 40 37 34 34 34 36 39 41 43 43 42 44 41 38 28 7 19 31 30 26 30 29 31 37 37 38 38 35
11 7 9 30 21 33 33 47 45 62 72 76 72 61 56 47 39 34 29 26 24 24 30 36 40 41 40 39 39 38 35 24 12 23 30 32 31 33 35 37 42 43 42 40
2 5 11 14 28 37 44 49 52 64 71 72 69 56 51 44 36 29 23 17 14 19 22 26 32 36 38 36 34 34 33 30 19 15 26 34 36 37 38 38 39 46 48 43
8 25 10 25 38 42 50 57 61 70 64 58 57 55 44 37 28 20 13 7 8 16 20 23 26 34 39 38 34 32 30 28 27 21 18 29 36 39 43 41 45 45 47 48
11 43 15 35 43 47 51 58 62 67 69 65 50 44 38 29 19 9 2 8 14 19 24 28 30 34 40 42 40 33 31 30 27 25 21 20 30 37 44 45 46 50 49 46
34 42 27 44 32 48 50 60 63 61 55 50 47 38 28 19 9 4 10 17 22 27 32 36 38 42 44 45 47 43 35 32 30 27 26 23 21 29 36 42 44 48 39 36
41 24 35 39 48 52 61 67 64 57 48 42 34 25 17 11 8 12 20 28 34 39 40 42 43 41 43 42 44 47 45 37 35 33 29 29 26 25 33 41 48 53 57 51
34 36 43 49 57 61 64 60 56 48 39 29 22 19 16 15 18 23 30 37 41 42 42 42 41 41 42 42 41 44 47 43 39 37 35 32 31 30 28 32 43 50 58 59
54 42 52 59 62 63 59 51 43 39 32 28 26 18 17 19 23 30 34 39 44 44 44 46 46 47 46 44 41 41 43 44 43 43 41 39 37 37 33 33 34 41 50 52
35 45 47 51 59 59 52 44 38 31 26 21 18 19 22 27 30 34 37 41 44 44 47 46 46 48 48 49 50 48 47 46 46 46 46 45 44 43 43 41 38 40 40 43
35 40 42 44 43 38 34 29 24 20 18 18 21 25 28 30 32 35 39 45 48 49 47 47 45 45 45 45 50 51 49 49 49 50 50 51 49 49 51 51 48 45 41 45
36 34 33 34 32 28 25 23 21 20 20 22 22 23 26 29 33 35 37 39 36 38 40 42 44 44 43 41 44 48 50 50 51 53 53 54 56 56 57 57 56 56 53 49
30 29 28 26 22 19 17 14 13 14 15 17 19 22 23 23 25 25 24 26 23 23 27 31 34 37 41 43 45 46 47 47 48 52 55 58 60 60 60 62 66 64 63 62
22 20 17 15 14 14 14 12 10 12 13 15 17 20 22 23 24 23 23 28 24 28 28 31 33 35 38 42 45 48 49 53 57 57 54 55 60 64 65 64 65 69 71 69
23 21 18 16 13 12 12 13 15 17 18 21 23 25 27 25 24 25 18 19 27 31 32 33 36 40 44 46 47 50 51 52 56 62 67 71 71 64 64 66 69 69 71 73
15 12 9 8 8 10 13 16 19 21 23 24 25 27 25 25 17 23 26 27 27 32 35 39 41 42 45 48 50 52 56 57 57 58 61 65 71 72 74 73 70 72 73 74
15 11 8 6 6 8 11 14 17 19 19 20 22 23 23 27 27 23 27 30 31 35 38 40 43 45 49 52 54 55 57 59 60 62 62 63 67 71 75 79 82 76 76 76
10 7 5 3 5 8 11 13 15 18 19 19 19 23 22 25 27 31 31 32 37 39 42 45 49 52 54 56 56 57 59 63 65 64 65 67 67 67 66 69 71 75 80 79
13 11 8 6 7 9 12 15 16 17 21 24 24 23 23 26 28 30 33 36 39 42 47 51 52 54 58 61 62 61 61 63 65 67 67 68 69 71 71 72 72 75 80 79
Wind_Direction_500mb
345 37 122 151 176 184 189 194 178 208 185 207 188 179 182 154 129 58 357 336 330 311 279 247 247 252 249 244 240 242 245 242 239 240 234 219 217 225 234 241 234 208 200 187
14 1 54 129 203 198 197 169 106 95 276 207 133 152 158 155 134 88 39 20 359 328 300 278 263 256 248 246 243 242 240 236 234 234 239 226 218 227 236 241 223 210 199 183
211 351 57 322 203 181 175 191 199 182 212 160 145 152 161 150 142 118 77 54 44 30 8 332 302 278 259 243 234 235 238 231 233 228 234 231 221 227 237 229 220 206 189 182
151 38 174 253 243 182 160 205 194 136 177 193 157 146 141 148 137 115 89 68 54 48 41 34 12 339 288 234 223 226 231 232 228 234 225 231 225 229 228 235 206 197 180 176
141 197 284 241 172 152 170 240 200 190 172 133 128 118 94 126 125 108 94 78 64 54 46 42 40 36 28 260 208 214 221 226 223 228 235 227 229 235 232 206 199 188 177 179
151 143 208 229 213 170 122 268 186 182 168 154 150 134 184 145 128 113 102 90 77 63 56 51 45 41 38 40 1 229 216 215 219 219 226 226 231 225 217 197 187 178 178 187
169 168 280 238 158 143 129 237 157 171 166 164 164 169 149 141 123 110 97 85 74 64 55 50 47 45 41 35 27 352 251 224 203 216 227 221 215 223 213 201 189 179 189 185
107 110 252 169 121 166 194 139 147 161 163 154 146 139 140 136 124 112 100 88 71 58 52 45 40 38 40 37 31 21 334 234 227 204 210 228 217 215 215 212 201 196 197 199
175 200 217 170 184 180 158 152 155 156 159 148 142 142 141 133 125 114 99 84 68 52 42 36 32 27 25 29 29 25 13 302 227 210 207 214 224 219 216 219 215 209 209 209
107 212 175 174 176 166 175 163 161 158 152 153 144 144 140 135 125 114 99 84 66 42 30 21 15 14 16 13 14 16 15 1 276 233 224 212 218 226 222 223 228 229 219 220
63 24 87 170 163 164 164 159 154 157 157 153 149 144 140 134 126 117 109 91 49 26 17 6 358 354 356 2 2 1 5 3 354 279 245 234 223 221 232 236 233 240 239 236
197 186 158 190 171 170 162 159 158 154 151 152 153 145 143 136 130 125 115 83 17 1 352 345 339 338 335 339 346 348 347 350 352 346 276 252 243 233 224 229 243 239 239 242
158 166 166 168 169 174 168 165 164 162 157 153 149 150 151 147 140 136 66 345 334 331 325 318 315 314 315 315 320 327 330 333 336 338 329 277 255 250 243 229 234 248 242 244
142 150 119 152 164 174 171 158 159 155 152 153 153 154 155 159 162 256 303 310 314 317 314 310 307 305 303 300 300 304 307 312 318 317 319 312 293 262 249 245 239 244 252 255
155 159 164 162 159 161 163 160 159 155 156 154 155 165 173 195 241 283 298 304 310 312 310 305 302 299 295 292 289 288 291 292 295 301 303 305 302 285 263 251 241 239 251 256
143 146 149 155 159 162 167 166 165 161 165 167 176 190 210 243 271 288 297 302 305 306 302 299 298 296 295 295 291 287 284 284 281 282 286 289 292 291 280 265 255 247 245 251
134 133 150 153 159 165 172 174 181 176 175 189 206 218 240 261 275 284 290 292 292 291 294 297 296 291 290 293 292 290 288 285 281 276 274 277 282 280 282 280 271 261 258 260
179 167 166 168 167 168 169 173 177 182 191 205 228 251 267 278 281 281 282 282 283 287 295 296 291 286 282 282 284 282 280 282 283 281 276 270 270 275 279 276 276 273 269 268
163 169 170 171 169 171 172 177 186 201 220 243 261 271 276 276 280 286 290 293 295 297 294 292 289 286 283 282 281 281 279 277 277 277 277 275 268 264 268 273 276 273 274 273
151 153 155 160 165 173 181 193 208 226 246 258 263 269 281 290 293 295 295 296 304 299 295 292 290 288 286 281 275 275 277 275 273 272 272 272 272 269 265 265 266 270 270 267
152 153 157 161 170 182 197 211 228 243 256 268 276 280 280 279 282 288 293 297 305 312 312 310 306 301 295 291 284 278 273 273 274 274 272 271 270 269 268 265 265 265 265 267
146 146 151 161 174 190 200 209 226 247 259 263 263 262 267 278 280 287 298 303 312 315 318 323 320 314 306 299 296 291 285 277 271 267 268 272 273 271 269 266 264 263 264 264
148 148 151 160 173 194 214 231 242 245 246 248 253 262 270 278 285 293 295 302 312 314 318 322 322 321 318 313 307 300 293 287 280 274 269 265 263 267 269 267 266 264 263 263
149 153 161 169 187 214 232 243 247 248 250 254 260 266 274 278 283 293 303 311 314 316 320 321 321 321 318 315 310 305 301 297 291 283 276 271 264 263 263 265 267 265 263 262
139 146 165 203 229 248 256 255 259 262 263 262 265 269 275 284 292 295 301 308 314 316 319 321 321 320 318 315 312 309 305 300 295 291 285 277 272 268 265 263 260 264 263 260
129 135 143 186 232 245 253 257 263 270 267 263 263 263 267 278 288 295 302 309 314 320 321 323 324 323 321 318 314 310 305 301 297 291 286 281 276 271 268 266 263 263 262 262
162 161 168 204 232 248 260 268 268 271 280 283 283 279 279 282 285 293 304 310 314 321 324 324 323 324 322 319 316 312 307 302 298 293 288 282 276 272 267 262 266 266 263 260
Wind_Speed_850mb
5 6 9 10 17 33 21 22 13 11 14 20 18 15 17 10 3 3 9 11 11 10 8 13 21 26 27 29 33 34 33 25 18 17 17 22 21 17 14 15 16 16 18 17
6 8 7 5 9 20 12 6 4 6 7 9 21 33 25 15 11 8 9 11 12 12 13 14 15 18 26 30 31 33 33 26 23 20 18 22 22 19 17 16 19 21 22 22
5 4 4 9 18 17 11 9 23 14 17 13 13 20 32 26 21 15 12 15 18 17 13 12 14 17 20 26 30 33 31 26 25 22 19 22 24 21 19 17 21 22 27 25
6 3 3 11 4 17 13 15 15 8 14 14 24 31 28 27 26 21 18 20 23 27 26 19 15 15 14 20 25 30 31 27 24 25 21 21 25 22 21 20 21 24 32 30
10 7 7 1 9 15 16 17 25 23 14 31 52 44 22 23 27 27 24 26 30 33 34 36 30 25 17 4 17 24 27 26 25 24 22 21 24 18 20 21 23 29 36 32
7 11 17 10 10 23 9 9 15 41 26 34 35 8 8 27 29 29 30 30 33 37 40 41 45 44 30 18 3 13 23 24 24 25 23 23 22 18 19 23 26 34 29 29
8 5 13 10 15 27 13 11 8 42 47 52 14 12 50 40 39 36 36 36 36 38 43 47 46 44 43 37 18 5 13 23 26 25 23 25 24 22 24 27 31 33 29 27
6 7 13 23 10 21 11 14 28 41 48 49 42 68 58 47 40 35 36 36 37 38 43 44 44 44 44 41 39 24 6 14 24 28 24 24 26 27 27 33 34 36 33 30
16 12 4 51 13 24 32 45 40 51 59 64 76 67 57 48 40 37 34 34 34 36 39 41 43 43 42 44 41 38 28 7 19 31 30 26 30 29 31 37 37 38 38 35
11 7 9 30 21 33 33 47 45 62 72 76 72 61 56 47 39 34 29 26 24 24 30 36 40 41 40 39 39 38 35 24 12 23 30 32 31 33 35 37 42 43 42 40
2 5 11 14 28 37 44 49 52 64 71 72 69 56 51 44 36 29 23 17 14 19 22 26 32 36 38 36 34 34 33 30 19 15 26 34 36 37 38 38 39 46 48 43
8 25 10 25 38 42 50 57 61 70 64 58 57 55 44 37 28 20 13 7 8 16 20 23 26 34 39 38 34 32 30 28 27 21 18 29 36 39 43 41 45 45 47 48
11 43 15 35 43 47 51 58 62 67 69 65 50 44 38 29 19 9 2 8 14 19 24 28 30 34 40 42 40 33 31 30 27 25 21 20 30 37 44 45 46 50 49 46
34 42 27 44 32 48 50 60 63 61 55 50 47 38 28 19 9 4 10 17 22 27 32 36 38 42 44 45 47 43 35 32 30 27 26 23 21 29 36 42 44 48 39 36
41 24 35 39 48 52 61 67 64 57 48 42 34 25 17 11 8 12 20 28 34 39 40 42 43 41 43 42 44 47 45 37 35 33 29 29 26 25 33 41 48 53 57 51
34 36 43 49 57 61 64 60 56 48 39 29 22 19 16 15 18 23 30 37 41 42 42 42 41 41 42 42 41 44 47 43 39 37 35 32 31 30 28 32 43 50 58 59
54 42 52 59 62 63 59 51 43 39 32 28 26 18 17 19 23 30 34 39 44 44 44 46 46 47 46 44 41 41 43 44 43 43 41 39 37 37 33 33 34 41 50 52
35 45 47 51 59 59 52 44 38 31 26 21 18 19 22 27 30 34 37 41 44 44 47 46 46 48 48 49 50 48 47 46 46 46 46 45 44 43 43 41 38 40 40 43
35 40 42 44 43 38 34 29 24 20 18 18 21 25 28 30 32 35 39 45 48 49 47 47 45 45 45 45 50 51 49 49 49 50 50 51 49 49 51 51 48 45 41 45
36 34 33 34 32 28 25 23 21 20 20 22 22 23 26 29 33 35 37 39 36 38 40 42 44 44 43 41 44 48 50 50 51 53 53 54 56 56 57 57 56 56 53 49
30 29 28 26 22 19 17 14 13 14 15 17 19 22 23 23 25 25 24 26 23 23 27 31 34 37 41 43 45 46 47 47 48 52 55 58 60 60 60 62 66 64 63 62
22 20 17 15 14 14 14 12 10 12 13 15 17 20 22 23 24 23 23 28 24 28 28 31 33 35 38 42 45 48 49 53 57 57 54 55 60 64 65 64 65 69 71 69
23 21 18 16 13 12 12 13 15 17 18 21 23 25 27 25 24 25 18 19 27 31 32 33 36 40 44 46 47 50 51 52 56 62 67 71 71 64 64 66 69 69 71 73
15 12 9 8 8 10 13 16 19 21 23 24 25 27 25 25 17 23 26 27 27 32 35 39 41 42 45 48 50 52 56 57 57 58 61 65 71 72 74 73 70 72 73 74
15 11 8 6 6 8 11 14 17 19 19 20 22 23 23 27 27 23 27 30 31 35 38 40 43 45 49 52 54 55 57 59 60 62 62 63 67 71 75 79 82 76 76 76
10 7 5 3 5 8 11 13 15 18 19 19 19 23 22 25 27 31 31 32 37 39 42 45 49 52 54 56 56 57 59 63 65 64 65 67 67 67 66 69 71 75 80 79
13 11 8 6 7 9 12 15 16 17 21 24 24 23 23 26 28 30 33 36 39 42 47 51 52 54 58 61 62 61 61 63 65 67 67 68 69 71 71 72 72 75 80 79
Wind_Direction_850mb
345 37 122 151 176 184 189 194 178 208 185 207 188 179 182 154 129 58 357 336 330 311 279 247 247 252 249 244 240 242 245 242 239 240 234 219 217 225 234 241 234 208 200 187
14 1 54 129 203 198 197 169 106 95 276 207 133 152 158 155 134 88 39 20 359 328 300 278 263 256 248 246 243 242 240 236 234 234 239 226 218 227 236 241 223 210 199 183
211 351 57 322 203 181 175 191 199 182 212 160 145 152 161 150 142 118 77 54 44 30 8 332 302 278 259 243 234 235 238 231 233 228 234 231 221 227 237 229 220 206 189 182
151 38 174 253 243 182 160 205 194 136 177 193 157 146 141 148 137 115 89 68 54 48 41 34 12 339 288 234 223 226 231 232 228 234 225 231 225 229 228 235 206 197 180 176
141 197 284 241 172 152 170 240 200 190 172 133 128 118 94 126 125 108 94 78 64 54 46 42 40 36 28 260 208 214 221 226 223 228 235 227 229 235 232 206 199 188 177 179
151 143 208 229 213 170 122 268 186 182 168 154 150 134 184 145 128 113 102 90 77 63 56 51 45 41 38 40 1 229 216 215 219 219 226 226 231 225 217 197 187 178 178 187
169 168 280 238 158 143 129 237 157 171 166 164 164 169 149 141 123 110 97 85 74 64 55 50 47 45 41 35 27 352 251 224 203 216 227 221 215 223 213 201 189 179 189 185
107 110 252 169 121 166 194 139 147 161 163 154 146 139 140 136 124 112 100 88 71 58 52 45 40 38 40 37 31 21 334 234 227 204 210 228 217 215 215 212 201 196 197 199
175 200 217 170 184 180 158 152 155 156 159 148 142 142 141 133 125 114 99 84 68 52 42 36 32 27 25 29 29 25 13 302 227 210 207 214 224 219 216 219 215 209 209 209
107 212 175 174 176 166 175 163 161 158 152 153 144 144 140 135 125 114 99 84 66 42 30 21 15 14 16 13 14 16 15 1 276 233 224 212 218 226 222 223 228 229 219 220
63 24 87 170 163 164 164 159 154 157 157 153 149 144 140 134 126 117 109 91 49 26 17 6 358 354 356 2 2 1 5 3 354 279 245 234 223 221 232 236 233 240 239 236
197 186 158 190 171 170 162 159 158 154 151 152 153 145 143 136 130 125 115 83 17 1 352 345 339 338 335 339 346 348 347 350 352 346 276 252 243 233 224 229 243 239 239 242
158 166 166 168 169 174 168 165 164 162 157 153 149 150 151 147 140 136 66 345 334 331 325 318 315 314 315 315 320 327 330 333 336 338 329 277 255 250 243 229 234 248 242 244
142 150 119 152 164 174 171 158 159 155 152 153 153 154 155 159 162 256 303 310 314 317 314 310 307 305 303 300 300 304 307 312 318 317 319 312 293 262 249 245 239 244 252 255
155 159 164 162 159 161 163 160 159 155 156 154 155 165 173 195 241 283 298 304 310 312 310 305 302 299 295 292 289 288 291 292 295 301 303 305 302 285 263 251 241 239 251 256
143 146 149 155 159 162 167 166 165 161 165 167 176 190 210 243 271 288 297 302 305 306 302 299 298 296 295 295 291 287 284 284 281 282 286 289 292 291 280 265 255 247 245 251
134 133 150 153 159 165 172 174 181 176 175 189 206 218 240 261 275 284 290 292 292 291 294 297 296 291 290 293 292 290 288 285 281 276 274 277 282 280 282 280 271 261 258 260
179 167 166 168 167 168 169 173 177 182 191 205 228 251 267 278 281 281 282 282 283 287 295 296 291 286 282 282 284 282 280 282 283 281 276 270 270 275 279 276 276 273 269 268
163 169 170 171 169 171 172 177 186 201 220 243 261 271 276 276 280 286 290 293 295 297 294 292 289 286 283 282 281 281 279 277 277 277 277 275 268 264 268 273 276 273 274 273
151 153 155 160 165 173 181 193 208 226 246 258 263 269 281 290 293 295 295 296 304 299 295 292 290 288 286 281 275 275 277 275 273 272 272 272 272 269 265 265 266 270 270 267
152 153 157 161 170 182 197 211 228 243 256 268 276 280 280 279 282 288 293 297 305 312 312 310 306 301 295 291 284 278 273 273 274 274 272 271 270 269 268 265 265 265 265 267
146 146 151 161 174 190 200 209 226 247 259 263 263 262 267 278 280 287 298 303 312 315 318 323 320 314 306 299 296 291 285 277 271 267 268 272 273 271 269 266 264 263 264 264
148 148 151 160 173 194 214 231 242 245 246 248 253 262 270 278 285 293 295 302 312 314 318 322 322 321 318 313 307 300 293 287 280 274 269 265 263 267 269 267 266 264 263 263
149 153 161 169 187 214 232 243 247 248 250 254 260 266 274 278 283 293 303 311 314 316 320 321 321 321 318 315 310 305 301 297 291 283 276 271 264 263 263 265 267 265 263 262
139 146 165 203 229 248 256 255 259 262 263 262 265 269 275 284 292 295 301 308 314 316 319 321 321 320 318 315 312 309 305 300 295 291 285 277 272 268 265 263 260 264 263 260
129 135 143 186 232 245 253 257 263 270 267 263 263 263 267 278 288 295 302 309 314 320 321 323 324 323 321 318 314 310 305 301 297 291 286 281 276 271 268 266 263 263 262 262
162 161 168 204 232 248 260 268 268 271 280 283 283 279 279 282 285 293 304 310 314 321 324 324 323 324 322 319 316 312 307 302 298 293 288 282 276 272 267 262 266 266 263 260